Hourly Data Report for April 06, 2020

NANAIMO A
BRITISH COLUMBIA
Current Station Operator: NAVCAN

49°03'16.000" N
123°52'12.000" W
28.00 m
1025365
YCD

Download Data

Hourly Data (April 2020)
Hourly Data Report for April 6, 2020
TIME
LST
Temp Definition
°C
Dew Point Definition
°C
Rel Hum Definition
%
Precip. Amount Definition
mm

Wind Dir Definition
10's deg

Wind Spd Definition
km/h
Visibility Definition
km
Stn Press Definition
kPa
Hmdx Definition


Wind Chill Definition


Weather Definition


00:00 3.8 -1.7 67 LegendMM 27 10 LegendMM 100.48     LegendNANA
01:00 3.1 -2.0 69 LegendMM 25 3 LegendMM 100.52     LegendNANA
02:00 0.8 -2.2 81 LegendMM 26 5 LegendMM 100.57     LegendNANA
03:00 2.5 -2.2 71 LegendMM 27 9 LegendMM 100.63     LegendNANA
04:00 0.4 -2.1 84 LegendMM 19 2 LegendMM 100.69     LegendNANA
05:00 -1.2 -3.0 87 LegendMM 23 3 LegendMM 100.73   -2 LegendNANA
06:00 -1.0 -2.4 90 LegendMM 17 5 LegendMM 100.79   -3 LegendNANA
07:00 1.2 -1.0 85 LegendMM 13 3 LegendMM 100.88     LegendNANA
08:00 6.0 -0.6 63 LegendMM 12 4 LegendMM 100.95     LegendNANA
09:00 8.3 -2.5 46 LegendMM 8 4 LegendMM 100.99     LegendNANA
10:00 10.3 1.9 56 LegendMM 3 8 LegendMM 101.05     LegendNANA
11:00 10.6 0.2 48 LegendMM 33 4 LegendMM 101.08     LegendNANA
12:00 12.0 1.7 49 LegendMM 5 9 LegendMM 101.06     LegendNANA
13:00 11.9 0.0 44 LegendMM 11 9 LegendMM 101.11     LegendNANA
14:00 12.3 1.9 49 LegendMM 6 7 LegendMM 101.14     LegendNANA
15:00 12.4 1.7 48 LegendMM 11 10 LegendMM 101.13     LegendNANA
16:00 12.7 1.6 47 LegendMM 7 9 LegendMM 101.17     LegendNANA
17:00 12.7 1.1 45 LegendMM 3 3 LegendMM 101.16     LegendNANA
18:00 11.0 2.1 54 LegendMM 16 12 LegendMM 101.18     LegendNANA
19:00 9.8 2.0 58 LegendMM 19 5 LegendMM 101.19     LegendNANA
20:00 7.0 3.0 76 LegendMM 26 11 LegendMM 101.27     LegendNANA
21:00 5.4 2.5 82 LegendMM 30 5 LegendMM 101.33     LegendNANA
22:00 4.9 2.0 81 LegendMM 28 6 LegendMM 101.39     LegendNANA
23:00 4.1 1.4 83 LegendMM 27 4 LegendMM 101.44     LegendNANA

Notes on Data Quality.

Legend

  • E = Estimated
  • M = Missing
  • NA = Not Available*
  • [empty] = Indicates an unobserved value
Date modified: